Hourly Data Report for September 15, 2017

All times are specified in Local Standard Time (LST). Add 1 hour to adjust for Daylight Saving Time where and when it is observed.

ARVIAT A
NUNAVUT

61°05'38.000" N
94°04'18.000" W
10.40 m
2300427
71174
YEK

Download Data

Hourly Data (September 2017)
Hourly Data Report for September 15, 2017
Temp Definition
°C
Dew Point Temp Definition
°C
Rel Hum Definition
%
Wind Dir Definition
10's deg

Wind Spd Definition
km/h
Visibility Definition
km
Stn Press Definition
kPa
Hmdx Definition


Wind Chill Definition


Weather Definition


TIME
00:00 Legend Double Dagger 2.4 0.9 90 27 13 16.1 101.79     LegendNANA
01:00 Legend Double Dagger 1.9 0.3 89 28 15 16.1 101.80     LegendNANA
02:00 Legend Double Dagger 0.8 -0.1 94 28 15 16.1 101.80     LegendNANA
03:00 Legend Double Dagger 1.1 0.2 94 30 17 16.1 101.81     LegendNANA
04:00 Legend Double Dagger 0.3 -0.6 94 28 13 16.1 101.84     LegendNANA
05:00 Legend Double Dagger 0.6 0.2 97 31 13 16.1 101.87     LegendNANA
06:00 Legend Double Dagger 1.5 1.2 98 33 15 16.1 101.89     LegendNANA
07:00 Legend Double Dagger 1.9 1.6 98 34 15 16.1 101.94     LegendNANA
08:00 Legend Double Dagger 3.1 2.6 96 32 17 16.1 101.98     LegendNANA
09:00 Legend Double Dagger 4.2 3.2 93 31 17 16.1 102.00     LegendNANA
10:00 Legend Double Dagger 5.9 3.5 85 31 17 16.1 102.01     LegendNANA
11:00 Legend Double Dagger 7.1 3.3 77 29 18 16.1 102.01     LegendNANA
12:00 Legend Double Dagger 7.9 2.3 68 29 18 16.1 101.98     LegendNANA
13:00 Legend Double Dagger 9.1 2.3 62 28 21 16.1 101.95     LegendNANA
14:00 Legend Double Dagger 9.8 3.1 63 27 17 16.1 101.94     LegendNANA
15:00 Legend Double Dagger 10.9 3.2 59 25 26 16.1 101.90     LegendNANA
16:00 Legend Double Dagger 11.1 3.1 58 25 28 16.1 101.87     LegendNANA
17:00 Legend Double Dagger 11.6 3.7 58 25 26 16.1 101.85     LegendNANA
18:00 Legend Double Dagger 11.4 3.9 60 25 24 16.1 101.84     LegendNANA
19:00 Legend Double Dagger 10.1 4.5 68 24 18 16.1 101.83     LegendNANA
20:00 Legend Double Dagger 7.8 4.5 80 24 18 16.1 101.84     LegendNANA
21:00 Legend Double Dagger 7.5 3.9 78 24 18 16.1 101.81     LegendNANA
22:00 Legend Double Dagger 7.8 4.4 79 25 21 16.1 101.81     LegendNANA
23:00 Legend Double Dagger 8.1 5.0 81 25 21 16.1 101.80     Rain

Notes on Data Quality.

Legend

  • E = Estimated
  • M = Missing
  • NA = Not Available
  • ‡ = Partner data that is not subject to review by the National Climate Archives
Date modified: